K0RGI Weather Reports


Display with metric or nautical units.
time (UTC)temp
F
wind
direction
speed
MPH
gust
MPH
rain 1hr
in
rain 24hr
in
rain mn
in
humidity
%
barometer
mb
20260505152150 71 265 8.0 10.0 0.00 0.00 0.00 55 1016.8
20260505151149 70 256 2.0 2.0 0.00 0.00 0.00 57 1017.0
20260505150148 70 284 6.0 7.0 0.00 0.00 0.00 55 1016.8
20260505140148 69 126 3.0 3.0 0.00 0.00 0.00 57 1017.1
20260505130135 66 260 0.0 1.0 0.00 0.00 0.00 65 1016.9
20260505124133 63 289 0.0 1.0 0.00 0.00 0.00 68 1016.7
20260505123132 62 197 2.0 2.0 0.00 0.00 0.00 71 1016.7
20260505122132 59 316 1.0 1.0 0.00 0.00 0.00 78 1016.7
20260505121131 58 315 0.0 1.0 0.00 0.00 0.00 81 1016.5
20260505120129 57 315 1.0 1.0 0.00 0.00 0.00 82 1016.6
20260505115127 56 312 0.0 1.0 0.00 0.00 0.00 80 1016.2
20260505114126 56 312 0.0 1.0 0.00 0.00 0.00 78 1016.4
20260505113125 56 310 1.0 1.0 0.00 0.00 0.00 76 1016.0
20260505112120 55 310 1.0 1.0 0.00 0.00 0.00 76 1016.0
20260505111115 55 307 1.0 1.0 0.00 0.00 0.00 80 1015.9
20260505110115 54 310 0.0 0.0 0.00 0.00 0.00 79 1015.8
20260505102108 55 310 1.0 1.0 0.00 0.00 0.00 75 1015.6
20260505101108 55 305 0.0 1.0 0.00 0.00 0.00 77 1015.7
20260505100107 55 261 0.0 0.0 0.00 0.00 0.00 77 1015.9
20260505095105 56 261 0.0 0.0 0.00 0.00 0.00 74 1015.4
20260505094104 57 262 0.0 0.0 0.00 0.00 0.00 70 1015.8
20260505093104 58 265 1.0 1.0 0.00 0.00 0.00 69 1015.4
20260505092100 58 263 0.0 0.0 0.00 0.00 0.00 69 1015.5
20260505091054 58 277 2.0 2.0 0.00 0.00 0.00 69 1015.4
20260505090049 58 265 0.0 0.0 0.00 0.00 0.00 70 1015.6
20260505085045 58 258 1.0 1.0 0.00 0.00 0.00 69 1015.2
20260505084041 58 240 1.0 1.0 0.00 0.00 0.00 70 1015.2
20260505083040 59 258 0.0 0.0 0.00 0.00 0.00 69 1015.4
20260505082039 59 257 0.0 1.0 0.00 0.00 0.00 69 1015.3
20260505081038 59 253 1.0 1.0 0.00 0.00 0.00 69 1015.2
20260505080037 59 261 0.0 1.0 0.00 0.00 0.00 69 1015.1
20260505075036 59 256 0.0 1.0 0.00 0.00 0.00 68 1015.0
20260505074036 59 262 1.0 1.0 0.00 0.00 0.00 68 1014.8
20260505073032 60 265 0.0 1.0 0.00 0.00 0.00 67 1015.0
20260505072029 60 266 1.0 2.0 0.00 0.00 0.00 67 1015.2
20260505071029 60 271 0.0 0.0 0.00 0.00 0.00 67 1015.3
20260505070027 60 257 0.0 1.0 0.00 0.00 0.00 67 1015.3
20260505065025 60 254 1.0 1.0 0.00 0.00 0.00 67 1015.1
20260505064021 60 268 1.0 1.0 0.00 0.00 0.00 67 1015.4
20260505063019 61 266 0.0 0.0 0.00 0.00 0.00 67 1015.2
20260505062020 61 256 0.0 1.0 0.00 0.00 0.00 67 1015.3
20260505061015 61 260 0.0 1.0 0.00 0.00 0.00 66 1015.3
20260505060014 61 266 0.0 0.0 0.00 0.00 0.00 66 1015.2
20260505055012 62 265 0.0 1.0 0.00 0.00 0.00 65 1015.2
20260505054008 62 255 0.0 1.0 0.00 0.00 0.00 64 1015.4
20260505053007 63 270 1.0 2.0 0.00 0.00 0.00 63 1015.1
20260505052007 63 264 2.0 2.0 0.00 0.00 0.00 63 1015.1
20260505051002 64 266 2.0 3.0 0.00 0.00 0.00 63 1015.0
20260505041000 64 270 1.0 1.0 0.00 0.00 0.00 62 1015.0
20260505040000 64 256 1.0 1.0 0.00 0.00 0.00 62 1015.0
20260505034959 65 273 0.0 1.0 0.00 0.00 0.00 61 1015.0
20260505033958 65 265 2.0 2.0 0.00 0.00 0.00 60 1015.0
20260505032953 65 262 1.0 2.0 0.00 0.00 0.00 60 1014.8
20260505031952 65 249 1.0 1.0 0.00 0.00 0.00 60 1014.9
20260505030952 65 275 2.0 3.0 0.00 0.00 0.00 60 1015.0
20260505025949 65 264 1.0 1.0 0.00 0.00 0.00 60 1015.0
20260505024945 65 258 1.0 1.0 0.00 0.00 0.00 60 1015.1
20260505023945 66 254 1.0 1.0 0.00 0.00 0.00 59 1015.0
20260505022946 66 256 1.0 1.0 0.00 0.00 0.00 58 1015.2
20260505021940 67 260 1.0 1.0 0.00 0.00 0.00 57 1015.0
20260505020938 67 258 1.0 1.0 0.00 0.00 0.00 57 1015.2
20260505015936 67 259 2.0 3.0 0.00 0.00 0.00 56 1015.1
20260505014931 68 266 0.0 1.0 0.00 0.00 0.00 56 1014.8
20260505013930 68 264 1.0 2.0 0.00 0.00 0.00 55 1014.9
20260505012925 69 269 2.0 2.0 0.00 0.00 0.00 54 1014.7
20260505011925 69 248 3.0 3.0 0.00 0.00 0.00 54 1014.9
20260505010924 69 257 2.0 2.0 0.00 0.00 0.00 54 1014.7
20260505005922 70 250 2.0 2.0 0.00 0.00 0.00 54 1014.6
20260505004922 70 284 5.0 7.0 0.00 0.00 0.00 53 1014.5
20260505003921 71 234 3.0 3.0 0.00 0.00 0.00 53 1014.8
20260505002920 70 285 3.0 3.0 0.00 0.00 0.00 54 1014.3
20260505001915 71 280 2.0 2.0 0.00 0.00 0.00 55 1014.4
20260505000910 71 249 1.0 1.0 0.00 0.00 0.00 54 1014.3
20260504235910 71 261 3.0 3.0 0.00 0.00 0.00 54 1014.3
20260504234909 72 275 1.0 1.0 0.00 0.00 0.00 54 1014.5
20260504233909 72 281 2.0 3.0 0.00 0.00 0.00 53 1014.5
20260504232907 72 254 5.0 6.0 0.00 0.00 0.00 51 1014.2
20260504231907 73 269 1.0 2.0 0.00 0.00 0.00 52 1014.1
20260504230906 73 330 3.0 5.0 0.00 0.00 0.00 49 1014.4
20260504225902 74 257 2.0 2.0 0.00 0.00 0.00 48 1014.2
20260504224902 74 247 6.0 9.0 0.00 0.00 0.00 47 1014.0
20260504223901 75 238 3.0 5.0 0.00 0.00 0.00 48 1014.1
20260504222858 75 270 2.0 2.0 0.00 0.00 0.00 47 1014.1
20260504221854 75 263 4.0 5.0 0.00 0.00 0.00 48 1014.0
20260504220854 76 244 1.0 2.0 0.00 0.00 0.00 48 1014.1
20260504215853 75 287 3.0 3.0 0.00 0.00 0.00 50 1014.2
20260504214851 75 279 1.0 1.0 0.00 0.00 0.00 50 1014.4
20260504213850 75 282 0.0 0.0 0.00 0.00 0.00 49 1014.5
20260504212850 76 156 2.0 3.0 0.00 0.00 0.00 48 1014.4
20260504211849 76 293 2.0 2.0 0.00 0.00 0.00 50 1014.5
20260504210849 75 259 1.0 1.0 0.00 0.00 0.00 48 1014.6
20260504205849 76 267 1.0 1.0 0.00 0.00 0.00 48 1014.7
20260504204844 77 288 1.0 1.0 0.00 0.00 0.00 48 1014.8
20260504203842 77 256 6.0 7.0 0.00 0.00 0.00 45 1014.9
20260504202840 77 289 0.0 1.0 0.00 0.00 0.00 47 1014.9
20260504201839 78 289 1.0 1.0 0.00 0.00 0.00 46 1015.0
20260504200834 77 320 1.0 1.0 0.00 0.00 0.00 46 1015.1
20260504195833 78 216 2.0 3.0 0.00 0.00 0.00 49 1015.3
20260504194831 77 186 3.0 3.0 0.00 0.00 0.00 48 1015.4
20260504193829 77 256 8.0 11.0 0.00 0.00 0.00 48 1015.3
20260504192825 77 302 3.0 5.0 0.00 0.00 0.00 48 1015.7
20260504191821 77 323 2.0 2.0 0.00 0.00 0.00 47 1015.7
20260504190819 75 325 2.0 2.0 0.00 0.00 0.00 49 1015.9
20260504185818 76 257 2.0 2.0 0.00 0.00 0.00 49 1016.3
20260504184817 75 308 2.0 2.0 0.00 0.00 0.00 53 1016.2
20260504183815 75 285 7.0 10.0 0.00 0.00 0.00 49 1016.4
20260504182810 74 274 0.0 1.0 0.00 0.00 0.00 51 1016.5
20260504181810 74 311 1.0 1.0 0.00 0.00 0.00 50 1016.7
20260504180807 74 256 2.0 2.0 0.00 0.00 0.00 50 1016.7
20260504175802 74 270 5.0 7.0 0.00 0.00 0.00 51 1016.9
20260504174803 75 280 1.0 1.0 0.00 0.00 0.00 50 1017.0
20260504173802 74 276 3.0 6.0 0.00 0.00 0.00 49 1017.1
20260504172802 73 219 4.0 6.0 0.00 0.00 0.00 49 1017.3
20260504171800 72 293 1.0 1.0 0.00 0.00 0.00 52 1017.4
20260504170755 72 293 2.0 2.0 0.00 0.00 0.00 52 1017.4